QPF
0.00 0.00 0.00 0.00 0.00 0.00 0.00 0.00 0.00 0.00 0.00 0.00 0.00 0.00 0.00 0.00 0.00 0.03 0.00 0.00 0.00 0.00 0.00 0.00 0.02 0.01 0.00 0.00 0.00 0.00 0.00 0.00 0.00 0.00 0.00 0.00 0.00 0.00 0.00 0.00 0.00 0.00 0.00 0.00 0.00 0.00 0.00 0.00 0.00
0.00 0.00 0.00 0.00 0.00 0.00 0.00 0.00 0.00 0.00 0.00 0.00 0.00 0.00 0.00 0.01 0.01 0.00 0.00 0.00 0.00 0.00 0.00 0.00 0.01 0.01 0.00 0.00 0.00 0.00 0.00 0.00 0.00 0.00 0.00 0.00 0.00 0.00 0.00 0.00 0.00 0.00 0.00 0.00 0.00 0.00 0.00 0.00 0.00
0.00 0.00 0.00 0.00 0.00 0.00 0.00 0.00 0.00 0.00 0.00 0.00 0.00 0.00 0.00 0.00 0.01 0.00 0.00 0.00 0.00 0.00 0.00 0.00 0.00 0.00 0.00 0.00 0.00 0.00 0.00 0.00 0.00 0.00 0.00 0.00 0.00 0.00 0.00 0.00 0.00 0.00 0.00 0.00 0.00 0.00 0.00 0.00 0.00
0.00 0.00 0.00 0.00 0.00 0.00 0.00 0.00 0.00 0.00 0.00 0.00 0.00 0.00 0.00 0.00 0.00 0.00 0.00 0.00 0.00 0.00 0.00 0.00 0.00 0.00 0.00 0.00 0.00 0.00 0.00 0.00 0.00 0.00 0.00 0.00 0.00 0.00 0.00 0.00 0.00 0.00 0.00 0.00 0.00 0.00 0.00 0.00 0.00
0.00 0.00 0.00 0.00 0.00 0.00 0.00 0.00 0.00 0.00 0.00 0.00 0.00 0.00 0.00 0.00 0.00 0.00 0.00 0.00 0.00 0.00 0.00 0.00 0.00 0.00 0.00 0.00 0.00 0.00 0.00 0.00 0.00 0.00 0.00 0.00 0.00 0.00 0.00 0.00 0.00 0.00 0.00 0.00 0.00 0.00 0.00 0.00 0.00
0.00 0.00 0.00 0.00 0.00 0.00 0.00 0.00 0.00 0.00 0.00 0.00 0.00 0.00 0.00 0.00 0.00 0.00 0.00 0.00 0.00 0.00 0.00 0.00 0.00 0.00 0.00 0.00 0.00 0.00 0.00 0.00 0.00 0.00 0.00 0.00 0.00 0.00 0.00 0.00 0.00 0.00 0.00 0.00 0.00 0.00 0.00 0.00 0.00
0.00 0.00 0.00 0.00 0.00 0.00 0.00 0.00 0.00 0.00 0.00 0.00 0.00 0.00 0.00 0.00 0.00 0.00 0.00 0.00 0.00 0.00 0.00 0.00 0.00 0.00 0.00 0.00 0.00 0.00 0.00 0.00 0.00 0.00 0.00 0.00 0.00 0.00 0.00 0.00 0.00 0.00 0.00 0.00 0.00 0.00 0.00 0.00 0.00
0.00 0.00 0.00 0.00 0.00 0.00 0.00 0.00 0.00 0.00 0.00 0.00 0.00 0.00 0.00 0.00 0.00 0.00 0.00 0.00 0.00 0.00 0.00 0.00 0.00 0.00 0.00 0.00 0.00 0.00 0.00 0.00 0.00 0.00 0.00 0.00 0.00 0.00 0.00 0.00 0.00 0.00 0.00 0.00 0.00 0.00 0.00 0.00 0.00
0.00 0.00 0.00 0.00 0.00 0.00 0.00 0.00 0.00 0.00 0.00 0.00 0.00 0.00 0.00 0.00 0.00 0.00 0.00 0.00 0.00 0.00 0.00 0.00 0.00 0.00 0.00 0.00 0.00 0.00 0.00 0.00 0.00 0.00 0.00 0.00 0.00 0.00 0.00 0.00 0.00 0.00 0.00 0.00 0.00 0.00 0.00 0.00 0.00
0.00 0.00 0.00 0.00 0.00 0.00 0.00 0.00 0.00 0.00 0.00 0.00 0.00 0.00 0.00 0.00 0.00 0.00 0.00 0.00 0.00 0.00 0.00 0.00 0.00 0.00 0.01 0.00 0.00 0.00 0.00 0.00 0.00 0.00 0.00 0.00 0.00 0.00 0.00 0.00 0.00 0.00 0.00 0.00 0.00 0.00 0.00 0.00 0.00
0.00 0.00 0.00 0.00 0.00 0.00 0.00 0.00 0.00 0.00 0.00 0.00 0.00 0.00 0.00 0.00 0.00 0.00 0.00 0.00 0.00 0.00 0.00 0.00 0.00 0.01 0.00 0.00 0.00 0.00 0.00 0.00 0.00 0.00 0.00 0.00 0.00 0.00 0.00 0.00 0.00 0.00 0.00 0.00 0.00 0.00 0.00 0.00 0.00
0.00 0.00 0.00 0.00 0.00 0.00 0.00 0.00 0.00 0.00 0.00 0.00 0.00 0.00 0.00 0.00 0.00 0.00 0.00 0.00 0.00 0.00 0.00 0.00 0.00 0.01 0.00 0.00 0.00 0.01 0.01 0.00 0.00 0.00 0.00 0.00 0.00 0.00 0.00 0.00 0.00 0.00 0.00 0.00 0.00 0.00 0.00 0.00 0.00
0.00 0.00 0.00 0.00 0.00 0.00 0.00 0.00 0.00 0.00 0.00 0.00 0.00 0.00 0.00 0.00 0.00 0.00 0.00 0.00 0.00 0.00 0.00 0.00 0.00 0.00 0.00 0.02 0.01 0.00 0.00 0.00 0.00 0.00 0.00 0.00 0.00 0.00 0.00 0.00 0.00 0.00 0.00 0.00 0.00 0.00 0.00 0.00 0.00
0.00 0.00 0.00 0.00 0.00 0.00 0.00 0.00 0.00 0.00 0.00 0.00 0.00 0.00 0.00 0.00 0.00 0.00 0.00 0.00 0.00 0.01 0.02 0.02 0.04 0.03 0.03 0.02 0.00 0.00 0.00 0.00 0.00 0.00 0.00 0.00 0.00 0.00 0.00 0.00 0.00 0.00 0.00 0.00 0.00 0.00 0.00 0.00 0.00
0.00 0.00 0.00 0.00 0.00 0.00 0.00 0.00 0.00 0.00 0.00 0.00 0.00 0.00 0.00 0.00 0.00 0.00 0.00 0.01 0.04 0.08 0.13 0.14 0.09 0.06 0.05 0.03 0.02 0.01 0.00 0.00 0.00 0.00 0.00 0.00 0.00 0.00 0.00 0.00 0.00 0.00 0.00 0.00 0.00 0.00 0.00 0.00 0.00
0.00 0.00 0.00 0.00 0.00 0.00 0.00 0.00 0.00 0.00 0.00 0.00 0.00 0.00 0.00 0.00 0.00 0.00 0.00 0.01 0.05 0.07 0.08 0.05 0.09 0.05 0.03 0.01 0.00 0.00 0.00 0.00 0.00 0.00 0.00 0.00 0.00 0.00 0.00 0.00 0.00 0.00 0.00 0.00 0.00 0.00 0.00 0.00 0.00
0.00 0.00 0.00 0.00 0.00 0.00 0.00 0.00 0.00 0.00 0.00 0.00 0.00 0.00 0.00 0.00 0.00 0.00 0.00 0.00 0.01 0.03 0.01 0.00 0.00 0.00 0.00 0.00 0.00 0.00 0.00 0.00 0.00 0.00 0.00 0.00 0.00 0.00 0.00 0.00 0.00 0.00 0.00 0.00 0.00 0.00 0.00 0.00 0.00
0.00 0.00 0.00 0.00 0.00 0.00 0.00 0.00 0.00 0.00 0.00 0.00 0.00 0.00 0.00 0.00 0.00 0.00 0.00 0.00 0.02 0.03 0.01 0.00 0.00 0.00 0.00 0.00 0.00 0.00 0.00 0.00 0.00 0.00 0.00 0.00 0.00 0.00 0.00 0.00 0.00 0.00 0.00 0.00 0.00 0.00 0.00 0.00 0.00
0.00 0.00 0.00 0.00 0.00 0.00 0.00 0.00 0.00 0.00 0.00 0.00 0.00 0.00 0.00 0.00 0.00 0.00 0.00 0.00 0.00 0.00 0.00 0.00 0.02 0.02 0.00 0.00 0.00 0.00 0.00 0.00 0.00 0.00 0.00 0.00 0.00 0.00 0.00 0.00 0.00 0.00 0.00 0.00 0.00 0.00 0.00 0.00 0.00
0.00 0.00 0.00 0.00 0.00 0.00 0.00 0.00 0.00 0.00 0.00 0.00 0.00 0.00 0.00 0.00 0.00 0.00 0.00 0.00 0.00 0.00 0.01 0.03 0.02 0.00 0.00 0.00 0.00 0.00 0.00 0.00 0.00 0.00 0.00 0.00 0.00 0.00 0.00 0.00 0.00 0.00 0.00 0.00 0.00 0.00 0.00 0.00 0.00
0.00 0.00 0.00 0.00 0.00 0.00 0.00 0.00 0.00 0.00 0.00 0.00 0.00 0.00 0.00 0.00 0.00 0.01 0.01 0.00 0.00 0.00 0.01 0.01 0.00 0.00 0.00 0.00 0.00 0.00 0.00 0.00 0.00 0.00 0.00 0.00 0.00 0.00 0.00 0.00 0.00 0.00 0.00 0.00 0.00 0.00 0.00 0.00 0.00
0.00 0.00 0.00 0.00 0.00 0.00 0.00 0.00 0.00 0.00 0.00 0.00 0.00 0.00 0.00 0.00 0.00 0.02 0.04 0.03 0.01 0.01 0.02 0.00 0.00 0.00 0.00 0.00 0.00 0.00 0.00 0.00 0.00 0.00 0.00 0.00 0.00 0.00 0.00 0.00 0.00 0.00 0.00 0.00 0.00 0.00 0.00 0.00 0.00
0.00 0.00 0.00 0.00 0.00 0.00 0.00 0.00 0.00 0.00 0.00 0.00 0.00 0.00 0.00 0.00 0.00 0.01 0.11 0.16 0.05 0.01 0.00 0.00 0.00 0.00 0.00 0.00 0.00 0.00 0.00 0.00 0.00 0.00 0.00 0.00 0.00 0.00 0.00 0.00 0.00 0.00 0.00 0.00 0.00 0.00 0.00 0.00 0.00
0.00 0.00 0.00 0.00 0.00 0.00 0.00 0.00 0.00 0.00 0.00 0.00 0.00 0.00 0.00 0.00 0.00 0.00 0.04 0.12 0.11 0.04 0.00 0.00 0.00 0.00 0.00 0.00 0.00 0.00 0.00 0.00 0.00 0.00 0.00 0.00 0.00 0.00 0.00 0.00 0.00 0.00 0.00 0.00 0.00 0.00 0.00 0.00 0.00
0.00 0.00 0.00 0.00 0.00 0.00 0.00 0.00 0.00 0.00 0.00 0.00 0.00 0.00 0.00 0.00 0.00 0.00 0.01 0.03 0.14 0.06 0.00 0.00 0.00 0.00 0.00 0.00 0.00 0.00 0.00 0.00 0.00 0.00 0.00 0.00 0.00 0.00 0.00 0.00 0.00 0.00 0.00 0.00 0.00 0.00 0.00 0.00 0.00
0.00 0.00 0.00 0.00 0.00 0.00 0.00 0.00 0.00 0.00 0.00 0.00 0.00 0.00 0.00 0.00 0.00 0.00 0.00 0.00 0.09 0.06 0.00 0.00 0.00 0.00 0.00 0.00 0.00 0.00 0.00 0.00 0.00 0.00 0.00 0.00 0.00 0.00 0.00 0.00 0.00 0.00 0.00 0.00 0.00 0.00 0.00 0.00 0.00
0.00 0.00 0.00 0.00 0.00 0.00 0.00 0.00 0.00 0.00 0.00 0.00 0.00 0.00 0.00 0.00 0.00 0.00 0.00 0.01 0.03 0.02 0.01 0.00 0.00 0.00 0.00 0.00 0.00 0.00 0.00 0.00 0.00 0.00 0.00 0.00 0.00 0.00 0.00 0.00 0.00 0.00 0.00 0.00 0.00 0.00 0.00 0.00 0.00
0.00 0.00 0.00 0.00 0.00 0.00 0.00 0.00 0.00 0.00 0.00 0.00 0.00 0.00 0.00 0.00 0.00 0.00 0.00 0.03 0.07 0.01 0.00 0.00 0.00 0.00 0.00 0.00 0.00 0.00 0.00 0.00 0.00 0.00 0.00 0.00 0.00 0.00 0.00 0.00 0.00 0.00 0.00 0.00 0.00 0.00 0.00 0.00 0.00
0.00 0.00 0.00 0.00 0.00 0.00 0.00 0.00 0.00 0.00 0.00 0.00 0.00 0.00 0.00 0.00 0.00 0.00 0.00 0.00 0.06 0.02 0.00 0.00 0.00 0.00 0.00 0.00 0.00 0.00 0.00 0.00 0.00 0.00 0.00 0.00 0.00 0.00 0.00 0.00 0.00 0.00 0.00 0.00 0.00 0.00 0.00 0.00 0.00
0.00 0.00 0.00 0.00 0.00 0.00 0.00 0.00 0.00 0.00 0.00 0.00 0.00 0.00 0.00 0.00 0.00 0.00 0.00 0.00 0.02 0.01 0.00 0.00 0.00 0.00 0.00 0.00 0.00 0.00 0.00 0.00 0.00 0.00 0.00 0.00 0.00 0.00 0.00 0.00 0.00 0.00 0.00 0.00 0.00 0.00 0.00 0.00 0.00
MSLP
1010.44 1009.74 1009.07 1008.07 1006.36 1004.36 1003.59 1004.73 1006.00 1006.84 1007.46 1008.55 1008.74 1008.42 1008.43 1009.31 1009.43 1010.90 1012.65 1012.96 1013.08 1013.45 1014.41 1015.09 1015.73 1016.07 1016.25 1016.38 1016.51 1016.53 1016.56 1016.53 1016.55 1016.55 1016.58 1016.58 1016.59 1016.46 1016.34 1016.31 1016.22 1016.22 1016.18 1015.99 1015.87 1015.74 1015.69 1015.61 1015.54
1009.45 1009.37 1008.49 1006.34 1004.64 1002.54 1003.00 1004.85 1005.72 1006.78 1008.12 1008.82 1009.08 1008.94 1009.00 1009.93 1010.64 1011.72 1012.36 1013.17 1013.39 1013.96 1014.34 1015.05 1015.86 1016.24 1016.51 1016.64 1016.75 1016.74 1016.69 1016.71 1016.67 1016.61 1016.58 1016.59 1016.55 1016.40 1016.45 1016.38 1016.34 1016.18 1016.08 1015.98 1015.81 1015.70 1015.62 1015.57 1015.54
1009.49 1009.06 1006.91 1004.92 1003.63 1002.44 1003.13 1004.84 1005.90 1007.53 1008.44 1008.79 1008.74 1009.01 1009.23 1010.53 1011.16 1011.62 1012.55 1013.29 1013.72 1014.24 1014.62 1015.58 1016.07 1016.49 1016.76 1016.73 1016.77 1016.82 1016.78 1016.88 1016.83 1016.82 1016.74 1016.62 1016.60 1016.56 1016.52 1016.37 1016.29 1016.14 1016.11 1016.03 1015.93 1015.76 1015.68 1015.53 1015.42
1008.72 1007.82 1006.55 1004.77 1002.95 1003.50 1004.58 1005.32 1006.62 1007.40 1008.45 1008.71 1008.34 1009.13 1010.56 1011.19 1011.37 1012.02 1013.10 1013.42 1013.86 1014.24 1014.49 1016.16 1016.46 1016.62 1016.74 1016.93 1017.02 1017.09 1017.01 1016.94 1016.98 1016.88 1016.84 1016.73 1016.71 1016.70 1016.54 1016.54 1016.40 1016.31 1016.18 1016.04 1015.92 1015.89 1015.67 1015.68 1015.49
1008.28 1006.55 1004.68 1003.79 1003.26 1004.24 1005.23 1006.39 1006.75 1007.25 1008.02 1008.13 1008.32 1009.17 1010.44 1011.78 1012.16 1012.68 1013.17 1013.39 1013.53 1013.81 1014.71 1015.76 1016.58 1016.66 1016.95 1017.07 1017.32 1017.22 1017.32 1017.31 1017.25 1017.21 1017.17 1017.24 1017.01 1016.92 1016.87 1016.66 1016.67 1016.52 1016.45 1016.28 1016.10 1015.99 1015.93 1015.67 1015.46
1006.66 1005.82 1004.12 1003.03 1003.33 1004.67 1005.31 1006.11 1006.69 1006.97 1007.55 1008.19 1008.32 1009.05 1010.56 1012.07 1012.37 1012.74 1013.04 1013.19 1013.41 1013.93 1014.41 1015.82 1016.68 1016.80 1017.02 1017.26 1017.50 1017.70 1017.80 1017.75 1017.72 1017.55 1017.55 1017.57 1017.38 1017.43 1017.40 1017.16 1017.19 1016.99 1016.72 1016.62 1016.39 1016.28 1016.09 1015.85 1015.68
1006.14 1004.77 1003.44 1002.99 1003.03 1003.91 1004.84 1005.97 1006.37 1006.72 1007.36 1007.52 1007.85 1008.45 1010.67 1011.41 1012.06 1012.62 1013.02 1013.32 1013.61 1014.02 1014.36 1015.21 1015.87 1016.90 1017.21 1017.60 1017.78 1017.93 1018.04 1018.00 1018.05 1018.01 1018.00 1017.95 1017.80 1017.72 1017.63 1017.64 1017.54 1017.35 1017.05 1016.94 1016.68 1016.47 1016.34 1016.03 1015.76
1005.98 1004.78 1003.60 1003.38 1003.07 1003.26 1005.19 1005.92 1006.34 1006.87 1006.87 1007.71 1007.75 1008.18 1009.97 1011.12 1011.97 1012.62 1012.95 1013.34 1013.70 1013.94 1014.11 1014.42 1015.33 1015.80 1016.31 1017.18 1018.01 1018.17 1018.25 1018.29 1018.31 1018.41 1018.08 1017.90 1017.64 1017.71 1017.70 1017.58 1017.88 1017.55 1017.38 1017.10 1016.84 1016.75 1016.45 1016.06 1015.69
1006.28 1004.74 1003.12 1002.82 1003.15 1003.25 1005.02 1005.53 1006.52 1007.07 1007.14 1007.59 1007.93 1008.28 1009.31 1011.24 1011.85 1012.23 1012.70 1013.13 1013.56 1013.97 1014.34 1014.43 1015.12 1015.48 1016.43 1016.87 1017.82 1018.05 1018.15 1018.23 1018.20 1018.00 1018.25 1017.61 1017.52 1017.54 1017.15 1017.97 1017.94 1017.82 1017.46 1017.21 1016.98 1016.66 1016.39 1015.91 1015.20
1005.70 1004.22 1003.01 1002.88 1003.16 1003.38 1004.59 1005.24 1006.00 1006.88 1006.93 1007.33 1008.33 1008.93 1010.12 1011.17 1011.57 1011.89 1012.41 1012.95 1013.51 1014.20 1014.56 1014.94 1015.59 1016.05 1016.43 1016.73 1017.27 1017.65 1017.86 1018.32 1018.48 1018.47 1018.40 1017.82 1018.15 1018.14 1017.87 1017.52 1017.61 1017.36 1017.28 1016.79 1016.68 1016.37 1015.93 1015.29 1014.38
1005.27 1003.89 1003.21 1003.34 1003.65 1004.08 1004.54 1005.19 1005.77 1006.32 1006.15 1006.66 1007.78 1008.95 1010.17 1010.85 1011.34 1011.78 1012.49 1012.99 1013.53 1014.30 1015.09 1015.34 1016.24 1016.38 1016.57 1016.90 1017.35 1017.61 1017.97 1018.24 1018.62 1018.72 1018.67 1018.60 1018.23 1018.30 1017.63 1017.34 1017.08 1017.01 1016.67 1016.27 1016.06 1015.67 1015.35 1015.66 1015.13
1005.10 1004.45 1003.77 1003.66 1004.14 1004.63 1004.69 1005.00 1005.55 1005.88 1005.77 1006.26 1007.36 1008.88 1009.81 1010.49 1011.15 1011.91 1012.80 1013.48 1014.26 1015.13 1015.78 1016.16 1016.42 1016.91 1017.23 1017.37 1017.40 1017.99 1018.14 1018.44 1018.42 1018.92 1018.99 1018.87 1018.54 1018.59 1018.29 1017.87 1017.48 1017.26 1016.89 1016.77 1016.33 1015.94 1016.12 1015.72 1015.31
1005.05 1004.08 1004.26 1004.40 1004.90 1004.72 1005.04 1005.00 1005.18 1005.57 1006.48 1006.77 1007.32 1008.79 1009.63 1010.33 1011.13 1011.91 1012.99 1014.12 1014.78 1015.43 1016.25 1016.74 1017.13 1017.57 1018.17 1018.44 1018.36 1018.53 1018.37 1018.73 1018.92 1018.93 1019.57 1019.40 1019.09 1019.04 1018.41 1018.16 1017.61 1017.37 1017.18 1016.86 1016.55 1016.18 1016.09 1015.62 1015.03
1004.56 1004.44 1004.37 1004.58 1004.64 1005.04 1005.21 1005.00 1005.31 1005.18 1006.04 1007.07 1007.88 1008.62 1009.39 1010.10 1011.00 1011.91 1012.86 1013.82 1014.68 1015.71 1016.59 1017.09 1017.68 1018.11 1018.50 1018.93 1018.69 1018.85 1019.13 1019.35 1019.29 1019.55 1019.89 1019.77 1019.40 1019.26 1018.43 1018.22 1017.77 1017.62 1017.62 1017.38 1016.85 1016.55 1016.10 1015.55 1014.95
1005.12 1004.77 1004.54 1004.49 1004.71 1004.89 1005.39 1005.40 1005.18 1005.16 1005.97 1007.00 1007.76 1008.46 1009.14 1009.92 1010.89 1011.87 1012.69 1013.77 1014.66 1015.63 1016.40 1017.24 1017.76 1018.36 1018.69 1019.24 1019.09 1018.95 1019.21 1019.41 1019.51 1019.61 1020.09 1019.99 1019.86 1019.42 1018.81 1018.29 1018.11 1018.19 1017.92 1017.53 1017.02 1016.73 1016.10 1015.69 1015.08
1004.91 1004.62 1003.60 1003.60 1004.74 1005.01 1005.51 1003.61 1003.87 1004.82 1006.15 1006.74 1007.72 1008.37 1009.14 1009.97 1011.05 1012.19 1013.12 1013.90 1014.72 1015.50 1016.43 1016.69 1017.39 1018.24 1018.85 1019.32 1019.02 1019.13 1019.69 1019.74 1019.65 1019.70 1019.80 1020.10 1019.91 1019.66 1019.03 1018.67 1018.84 1018.75 1018.03 1017.61 1017.20 1016.96 1016.35 1016.38 1015.83
1004.61 1003.24 1003.14 1003.15 1004.20 1004.33 1004.82 1003.41 1003.37 1004.99 1005.95 1006.49 1007.53 1008.44 1009.55 1011.19 1012.10 1012.98 1014.29 1015.12 1015.87 1016.64 1017.11 1016.89 1017.70 1018.34 1018.79 1019.23 1019.36 1019.64 1020.15 1019.91 1019.93 1019.87 1019.97 1020.23 1020.08 1019.97 1019.42 1019.39 1019.34 1018.77 1018.18 1017.84 1017.60 1017.28 1017.06 1016.68 1016.33
1003.21 1003.40 1003.27 1003.02 1003.88 1004.37 1003.93 1003.54 1004.20 1005.27 1005.63 1006.08 1007.21 1008.35 1010.23 1011.60 1012.46 1013.27 1014.40 1015.24 1015.87 1017.02 1016.84 1017.19 1017.99 1018.48 1018.88 1019.11 1019.33 1019.57 1019.94 1020.07 1020.07 1020.08 1020.29 1020.36 1020.25 1020.24 1019.75 1019.63 1019.73 1019.09 1018.71 1018.40 1018.25 1018.03 1017.86 1017.44 1017.09
1004.54 1003.97 1003.16 1003.49 1003.91 1003.94 1003.39 1003.35 1003.51 1004.78 1005.42 1005.70 1006.52 1007.69 1009.23 1010.49 1011.80 1012.95 1014.26 1015.09 1016.09 1016.69 1017.35 1018.00 1018.39 1018.94 1018.74 1018.67 1018.78 1019.33 1019.52 1020.02 1020.11 1020.36 1020.63 1020.57 1020.55 1020.41 1020.20 1019.72 1019.78 1019.24 1019.51 1019.39 1018.93 1018.13 1018.07 1017.74 1017.53
1004.92 1004.25 1003.76 1003.77 1004.10 1003.93 1002.95 1002.90 1002.93 1003.54 1004.54 1005.21 1005.91 1006.93 1008.29 1009.71 1010.98 1012.80 1013.84 1014.97 1015.83 1016.35 1016.90 1017.81 1018.27 1018.85 1018.66 1018.73 1019.10 1019.26 1019.58 1019.94 1020.09 1020.51 1020.90 1020.88 1020.81 1020.77 1020.54 1020.43 1020.34 1020.28 1019.73 1019.95 1019.59 1019.08 1017.92 1018.02 1018.08
1004.70 1004.26 1003.76 1003.77 1004.09 1004.08 1003.56 1002.74 1002.68 1002.99 1003.79 1004.61 1005.23 1006.13 1007.39 1009.06 1010.56 1012.82 1013.55 1014.63 1015.51 1016.04 1016.62 1017.51 1017.93 1018.42 1018.72 1019.04 1019.44 1019.64 1020.02 1020.08 1020.10 1020.44 1020.59 1021.07 1021.10 1021.01 1021.01 1021.03 1020.96 1020.66 1020.19 1020.18 1020.09 1019.64 1019.26 1018.00 1018.16
1003.99 1004.05 1004.18 1004.00 1003.93 1002.71 1003.00 1001.68 1001.07 1001.91 1002.64 1003.43 1004.12 1005.21 1006.32 1008.17 1010.25 1012.18 1013.25 1014.17 1014.83 1015.72 1016.44 1017.27 1017.78 1018.35 1018.84 1019.12 1019.03 1019.10 1018.92 1019.27 1019.89 1020.31 1020.86 1021.14 1021.26 1021.24 1021.28 1021.38 1021.35 1021.24 1020.71 1020.64 1020.36 1020.22 1019.67 1019.06 1018.51
1003.94 1004.57 1004.33 1004.04 1003.61 1003.00 1002.55 1002.27 1000.69 1001.48 1001.71 1001.83 1002.50 1003.74 1005.37 1006.75 1009.56 1011.12 1012.92 1013.84 1014.56 1015.61 1016.32 1017.04 1017.70 1018.27 1018.78 1018.97 1019.01 1019.10 1019.16 1020.04 1020.23 1020.51 1021.02 1021.35 1021.55 1021.45 1021.42 1021.51 1021.56 1021.48 1020.94 1021.22 1020.94 1020.67 1020.42 1019.81 1019.37
1004.49 1004.46 1004.16 1003.96 1003.15 1002.31 1001.84 1001.17 1000.10 999.70 1000.52 1000.48 1001.23 1002.44 1004.24 1005.73 1008.54 1010.53 1012.47 1013.43 1014.43 1015.35 1016.12 1016.75 1017.42 1018.15 1018.68 1018.97 1019.25 1019.33 1019.69 1019.85 1020.16 1020.44 1020.63 1020.73 1020.97 1021.27 1021.67 1021.59 1021.59 1021.58 1021.30 1021.32 1021.09 1021.00 1021.05 1020.85 1020.58
1004.26 1003.90 1002.99 1002.64 1002.02 1001.18 1000.97 1000.69 1000.13 999.29 999.66 999.85 999.87 1001.23 1002.99 1004.92 1007.81 1009.89 1011.48 1012.33 1013.69 1014.82 1015.36 1016.26 1016.93 1017.81 1018.43 1018.89 1019.22 1019.60 1019.95 1020.21 1020.52 1020.71 1020.43 1020.68 1020.81 1020.96 1021.77 1021.71 1021.69 1021.35 1021.44 1021.33 1021.27 1021.34 1021.27 1021.21 1020.99
1003.34 1003.25 1002.41 1001.62 1001.15 1000.49 1001.03 1000.34 999.55 999.44 999.39 999.93 1000.30 1001.09 1002.11 1004.12 1007.19 1009.14 1010.41 1011.58 1012.79 1013.85 1014.83 1015.73 1016.58 1017.42 1018.18 1018.73 1019.16 1019.58 1020.02 1020.10 1020.30 1020.55 1020.64 1020.71 1020.76 1021.06 1021.65 1021.68 1021.66 1021.62 1021.49 1021.33 1021.29 1020.89 1021.03 1021.34 1021.24
1002.98 1003.23 1002.90 1002.86 1002.52 1001.87 1000.72 999.72 999.79 999.20 999.23 999.44 999.92 1000.65 1001.58 1003.51 1006.27 1008.40 1009.63 1010.84 1011.90 1012.71 1013.97 1015.08 1016.15 1017.08 1017.95 1018.55 1019.05 1019.51 1019.95 1020.08 1020.10 1020.79 1021.17 1021.13 1021.24 1021.14 1021.49 1021.65 1021.83 1021.77 1021.54 1021.46 1021.32 1021.18 1021.28 1021.35 1021.34
1003.93 1003.90 1003.41 1002.93 1002.30 1001.29 1000.37 999.55 999.18 998.73 998.55 998.35 998.78 1000.06 1001.22 1003.31 1005.46 1007.08 1008.83 1010.02 1011.09 1012.27 1013.58 1014.74 1015.78 1016.68 1017.55 1018.27 1018.86 1019.38 1019.80 1020.14 1020.48 1020.84 1020.95 1021.13 1021.26 1021.35 1021.60 1021.68 1021.60 1021.81 1021.83 1021.58 1021.44 1021.21 1021.46 1021.40 1021.13
1004.08 1003.68 1003.86 1003.89 1003.20 1001.86 1000.82 999.64 999.00 999.44 999.19 999.23 998.55 999.07 1001.10 1002.97 1004.61 1005.99 1007.67 1009.36 1010.55 1011.70 1012.82 1014.30 1015.34 1016.26 1017.10 1017.84 1018.59 1019.12 1019.48 1020.05 1020.46 1020.63 1020.86 1021.08 1021.31 1021.40 1021.48 1021.55 1021.48 1021.42 1021.61 1021.67 1021.57 1021.47 1021.33 1021.23 1021.25
1005.33 1004.67 1004.76 1004.14 1003.37 1002.94 1002.29 1000.58 999.90 999.96 999.86 999.67 999.72 999.62 1000.62 1002.66 1003.94 1005.23 1006.70 1008.52 1010.08 1011.11 1012.30 1013.73 1014.73 1015.65 1016.53 1017.36 1018.26 1018.86 1019.28 1019.82 1020.13 1020.33 1020.58 1020.82 1021.13 1021.24 1021.36 1021.46 1021.59 1021.42 1021.44 1021.66 1021.60 1021.37 1021.25 1021.17 1021.09
Thickness
5812 5817 5823 5819 5798 5811 5802 5797 5805 5788 5787 5788 5788 5786 5783 5778 5770 5749 5773 5773 5773 5769 5760 5755 5750 5747 5745 5745 5744 5744 5744 5744 5744 5744 5743 5743 5742 5744 5744 5744 5744 5743 5742 5744 5744 5744 5743 5743 5743
5817 5817 5818 5820 5799 5807 5808 5809 5795 5797 5792 5792 5786 5785 5779 5762 5778 5770 5769 5771 5768 5762 5759 5754 5747 5743 5741 5740 5740 5740 5742 5741 5742 5742 5742 5742 5741 5742 5741 5741 5741 5742 5741 5740 5741 5741 5741 5741 5740
5815 5817 5809 5809 5808 5809 5805 5808 5804 5796 5795 5789 5785 5791 5784 5765 5775 5774 5775 5770 5764 5759 5756 5747 5745 5741 5738 5739 5739 5739 5739 5738 5738 5738 5739 5740 5739 5739 5737 5738 5737 5737 5736 5736 5735 5736 5736 5737 5737
5810 5811 5813 5796 5804 5812 5803 5808 5803 5795 5791 5794 5796 5774 5777 5782 5777 5777 5771 5768 5763 5759 5756 5743 5741 5739 5738 5736 5735 5735 5736 5736 5735 5736 5735 5736 5736 5734 5734 5732 5732 5732 5731 5731 5730 5729 5731 5729 5730
5811 5810 5795 5795 5803 5805 5807 5801 5804 5792 5789 5792 5795 5773 5769 5774 5779 5775 5770 5767 5764 5761 5753 5744 5738 5738 5734 5733 5730 5732 5730 5730 5731 5730 5731 5728 5731 5730 5728 5729 5726 5726 5725 5725 5726 5725 5724 5724 5724
5798 5806 5787 5790 5798 5799 5806 5808 5803 5799 5796 5790 5787 5780 5771 5776 5772 5771 5772 5768 5765 5760 5755 5743 5737 5736 5734 5732 5729 5727 5726 5726 5726 5728 5727 5725 5726 5723 5721 5722 5719 5719 5719 5718 5718 5717 5717 5718 5717
5791 5795 5792 5800 5801 5800 5804 5812 5800 5798 5792 5791 5801 5779 5772 5774 5776 5773 5771 5768 5763 5759 5756 5748 5743 5735 5733 5729 5728 5725 5723 5723 5722 5721 5720 5720 5720 5718 5717 5713 5712 5711 5711 5710 5710 5710 5709 5710 5711
5798 5798 5788 5796 5794 5798 5805 5804 5808 5797 5795 5806 5805 5778 5765 5775 5777 5772 5770 5765 5762 5759 5757 5754 5746 5742 5738 5731 5725 5722 5720 5719 5718 5716 5718 5717 5716 5713 5712 5710 5705 5706 5704 5704 5704 5702 5702 5703 5705
5801 5781 5784 5793 5793 5804 5809 5798 5803 5806 5797 5798 5798 5794 5792 5781 5777 5771 5765 5762 5760 5757 5755 5752 5746 5743 5736 5731 5724 5720 5720 5717 5715 5716 5713 5715 5713 5710 5710 5702 5700 5698 5699 5698 5697 5697 5696 5697 5701
5781 5780 5792 5811 5812 5808 5807 5802 5799 5790 5791 5790 5785 5792 5786 5778 5773 5767 5761 5756 5754 5749 5749 5747 5741 5737 5733 5729 5724 5720 5717 5712 5710 5708 5707 5709 5703 5700 5699 5700 5697 5696 5694 5694 5692 5692 5692 5694 5697
5782 5781 5804 5806 5810 5811 5804 5798 5804 5790 5786 5793 5782 5781 5778 5774 5770 5766 5760 5756 5752 5748 5743 5742 5733 5731 5729 5724 5720 5716 5712 5709 5704 5703 5700 5697 5697 5693 5696 5696 5695 5692 5692 5691 5690 5689 5689 5683 5683
5769 5790 5800 5803 5804 5799 5796 5804 5793 5795 5797 5807 5799 5788 5780 5772 5767 5761 5754 5750 5745 5738 5734 5732 5727 5722 5718 5716 5715 5709 5707 5703 5701 5696 5692 5690 5689 5687 5686 5687 5686 5685 5684 5681 5680 5679 5673 5672 5672
5769 5788 5793 5796 5794 5798 5801 5794 5793 5793 5798 5803 5800 5785 5776 5772 5767 5763 5756 5746 5741 5734 5727 5723 5717 5713 5708 5706 5704 5702 5701 5696 5693 5691 5683 5681 5679 5677 5680 5678 5679 5677 5674 5672 5670 5667 5664 5663 5663
5781 5784 5786 5790 5792 5791 5785 5789 5791 5798 5803 5792 5786 5780 5777 5772 5766 5762 5755 5747 5740 5731 5722 5718 5711 5706 5702 5698 5699 5696 5691 5688 5687 5682 5676 5673 5672 5671 5673 5671 5671 5667 5662 5658 5657 5655 5654 5653 5653
5774 5764 5777 5782 5785 5782 5786 5768 5775 5797 5796 5784 5781 5780 5777 5772 5768 5759 5755 5746 5740 5731 5724 5714 5707 5699 5697 5692 5692 5691 5687 5683 5680 5676 5669 5667 5664 5663 5663 5663 5659 5653 5650 5648 5647 5644 5643 5641 5641
5761 5765 5758 5781 5777 5780 5775 5771 5794 5799 5785 5779 5776 5776 5774 5770 5764 5757 5750 5742 5735 5727 5716 5714 5707 5698 5693 5689 5690 5686 5678 5675 5674 5670 5664 5659 5656 5654 5654 5651 5644 5640 5641 5639 5637 5634 5633 5627 5627
5753 5753 5758 5765 5779 5777 5770 5774 5793 5792 5782 5777 5775 5773 5766 5753 5751 5746 5736 5728 5721 5710 5701 5704 5700 5694 5691 5686 5683 5678 5671 5670 5665 5661 5656 5652 5649 5644 5643 5638 5634 5633 5633 5630 5627 5625 5621 5618 5616
5748 5746 5756 5758 5766 5766 5767 5771 5778 5777 5778 5778 5774 5770 5752 5743 5739 5740 5731 5724 5717 5701 5698 5698 5693 5690 5686 5682 5679 5673 5667 5663 5658 5654 5649 5644 5639 5635 5633 5629 5624 5623 5621 5619 5616 5612 5608 5606 5603
5745 5746 5751 5758 5767 5760 5765 5766 5776 5775 5774 5775 5774 5769 5759 5752 5748 5742 5730 5723 5712 5703 5693 5687 5684 5681 5683 5683 5678 5670 5664 5658 5654 5647 5640 5635 5631 5627 5624 5622 5616 5615 5608 5605 5604 5607 5601 5599 5595
5739 5739 5743 5754 5759 5758 5766 5764 5780 5781 5775 5776 5774 5769 5763 5755 5751 5736 5729 5720 5711 5705 5696 5687 5684 5680 5681 5677 5671 5667 5661 5654 5648 5639 5632 5628 5624 5620 5617 5612 5607 5603 5601 5595 5593 5593 5598 5592 5586
5736 5735 5741 5741 5747 5755 5753 5754 5766 5779 5779 5777 5778 5777 5770 5756 5747 5727 5725 5716 5710 5705 5697 5688 5685 5680 5675 5671 5664 5659 5653 5647 5642 5635 5630 5622 5617 5613 5608 5601 5596 5593 5591 5587 5583 5583 5582 5588 5583
5729 5748 5742 5738 5735 5736 5757 5736 5771 5775 5773 5775 5778 5775 5771 5759 5747 5731 5724 5716 5709 5702 5695 5688 5682 5675 5670 5665 5663 5658 5656 5647 5639 5632 5623 5616 5610 5605 5599 5592 5586 5581 5580 5577 5576 5574 5575 5576 5575
5733 5742 5738 5737 5734 5740 5743 5733 5768 5769 5762 5776 5784 5781 5773 5769 5747 5737 5722 5713 5703 5698 5689 5685 5678 5672 5666 5662 5658 5653 5648 5638 5633 5626 5616 5608 5602 5597 5591 5585 5579 5573 5572 5567 5566 5565 5564 5566 5565
5742 5734 5735 5736 5738 5715 5741 5745 5756 5774 5768 5782 5790 5787 5777 5773 5752 5738 5723 5714 5704 5695 5686 5683 5676 5668 5662 5657 5651 5647 5640 5635 5627 5621 5614 5609 5602 5592 5583 5578 5572 5566 5564 5560 5559 5557 5554 5552 5551
5731 5723 5712 5711 5717 5718 5754 5740 5751 5786 5785 5789 5796 5791 5785 5775 5752 5736 5724 5719 5706 5695 5691 5682 5675 5666 5659 5652 5647 5641 5634 5627 5620 5613 5611 5603 5596 5589 5577 5571 5565 5562 5557 5555 5552 5549 5546 5544 5543
5729 5727 5721 5702 5719 5739 5746 5725 5754 5781 5790 5789 5790 5788 5788 5775 5750 5735 5728 5720 5709 5699 5692 5683 5674 5665 5657 5649 5643 5637 5629 5625 5618 5611 5605 5598 5591 5583 5572 5565 5559 5555 5551 5549 5546 5547 5543 5538 5536
5728 5715 5740 5715 5726 5716 5739 5758 5765 5780 5779 5783 5782 5781 5781 5772 5751 5735 5730 5722 5712 5706 5695 5685 5674 5664 5654 5647 5640 5632 5625 5620 5615 5604 5594 5589 5582 5577 5566 5559 5551 5547 5545 5542 5540 5539 5536 5532 5530
5720 5729 5707 5721 5692 5696 5729 5739 5742 5764 5773 5787 5785 5778 5777 5767 5752 5743 5730 5722 5713 5705 5695 5683 5673 5662 5653 5644 5636 5629 5622 5615 5607 5598 5591 5584 5577 5568 5560 5553 5549 5542 5536 5535 5533 5533 5528 5526 5525
5712 5715 5712 5711 5713 5702 5705 5731 5771 5756 5766 5768 5785 5791 5774 5762 5753 5746 5734 5723 5713 5706 5696 5681 5671 5661 5651 5642 5634 5627 5619 5611 5601 5595 5587 5579 5570 5563 5556 5550 5546 5542 5535 5529 5527 5524 5523 5521 5518
5705 5705 5703 5693 5701 5707 5698 5711 5762 5757 5762 5769 5771 5779 5777 5761 5755 5749 5738 5724 5711 5703 5694 5680 5671 5661 5651 5642 5632 5624 5616 5607 5599 5592 5584 5575 5566 5559 5551 5545 5539 5536 5532 5525 5521 5520 5518 5515 5512